Temperature
25 24 23 24 29 29 27 27 27 27 26 25 25 25 25 24 24 22 20 19 18 18 18 18 18 18 18 18 18 18 18 18 18 18 18 18 18 18 18 18 18 18 18 18 18 18 18 18 18
24 23 24 29 30 28 27 27 27 26 25 25 24 24 24 23 22 20 19 18 18 18 18 17 18 18 18 18 18 18 18 18 18 18 18 18 18 18 18 18 18 18 18 18 18 18 18 18 18
24 24 28 31 29 28 27 27 26 26 25 25 24 24 23 22 21 20 19 18 18 18 18 18 18 18 18 18 18 18 18 18 18 18 18 18 18 18 18 18 18 18 18 18 18 18 18 18 18
25 27 30 31 28 28 27 27 27 26 25 25 25 24 22 21 21 20 19 19 19 18 18 17 18 18 18 18 18 18 18 18 18 18 18 18 18 18 18 18 18 18 18 17 17 17 17 17 17
26 31 31 29 28 28 28 27 27 27 26 25 25 24 22 20 20 19 19 19 19 19 18 17 18 18 18 18 18 18 18 18 18 18 18 18 18 18 18 18 18 18 17 17 17 17 17 17 17
30 32 31 29 28 28 28 27 27 27 26 25 25 24 21 20 20 19 19 19 19 19 18 18 18 18 18 18 18 18 18 18 18 18 18 18 18 18 18 18 18 18 17 17 17 17 17 17 17
32 32 31 30 28 28 28 27 27 27 26 25 25 25 22 21 20 19 19 19 19 19 19 18 18 18 18 18 18 18 18 18 18 18 18 18 18 18 18 18 18 18 17 17 17 17 17 18 18
31 33 31 30 29 28 28 27 26 27 26 24 25 25 23 20 20 19 19 19 19 19 19 18 18 18 18 18 18 18 18 18 18 18 18 18 18 18 18 18 18 18 17 18 18 18 18 18 18
31 33 31 31 30 29 28 27 26 26 25 25 24 24 22 20 20 20 20 19 19 19 19 19 19 18 18 18 18 18 18 18 18 18 18 18 17 17 17 17 18 18 18 18 18 18 18 18 18
32 32 31 31 31 30 28 28 27 27 26 25 24 23 21 20 20 21 20 20 19 19 19 19 18 18 18 18 18 18 18 17 17 17 17 17 17 17 17 18 18 18 18 18 18 18 18 18 17
33 32 31 31 30 29 29 28 27 28 27 26 24 23 21 21 21 21 21 20 20 19 19 19 18 18 18 18 18 18 18 17 18 17 17 17 17 17 17 17 18 17 18 17 18 18 18 18 17
32 31 31 30 29 29 29 28 28 28 27 26 24 23 22 22 22 22 21 20 20 19 19 19 19 18 18 18 18 18 18 18 18 18 18 17 18 17 17 17 17 17 17 17 18 18 17 17 17
32 31 30 30 29 29 29 28 28 27 26 25 24 23 23 23 22 22 21 20 20 19 19 19 19 18 18 18 18 18 18 18 18 18 18 18 18 18 18 17 17 17 17 18 17 17 17 17 17
32 31 30 30 29 29 29 28 28 27 25 25 24 23 23 23 22 22 21 20 20 20 19 19 19 18 18 18 18 18 18 18 18 18 18 18 18 18 18 18 17 17 18 18 18 17 17 18 18
31 31 31 30 30 29 29 29 29 27 26 25 24 24 23 23 22 22 21 21 20 20 19 19 19 19 19 18 18 18 18 18 18 18 18 18 18 18 18 18 17 18 18 18 18 18 18 18 18
32 32 31 31 30 29 30 30 29 27 26 26 25 24 23 23 22 22 21 21 20 20 19 19 19 19 19 19 18 18 18 18 18 18 18 18 18 18 18 18 18 18 17 18 18 18 18 18 18
32 32 32 31 31 30 30 30 29 27 27 26 25 25 24 23 23 22 22 21 20 20 19 19 19 19 18 18 18 18 18 18 18 18 18 18 18 18 18 18 18 18 18 18 18 18 18 18 18
32 32 32 31 31 30 30 31 30 27 27 27 26 25 25 24 23 22 22 21 21 20 20 19 19 19 18 18 18 18 18 18 18 18 18 18 18 18 18 18 18 17 17 18 17 17 18 18 18
33 32 32 32 31 31 31 31 30 28 28 28 27 26 25 25 24 23 22 21 21 20 20 20 19 19 19 18 18 18 18 18 18 18 18 18 18 18 18 18 18 17 17 17 17 17 17 17 17
32 32 32 31 31 31 31 31 31 29 28 28 28 27 26 25 24 23 22 22 21 21 20 20 20 19 19 19 19 18 18 18 18 18 18 18 18 18 18 18 17 18 18 17 17 17 17 17 17
32 32 32 31 31 31 31 31 31 30 29 28 28 27 27 26 25 23 22 22 21 21 21 20 20 19 19 19 18 18 18 18 18 18 18 18 18 18 18 17 17 17 17 17 17 17 17 17 17
32 32 32 31 31 31 31 31 31 31 30 29 28 28 27 26 25 24 23 22 22 21 21 20 20 20 19 19 19 18 18 18 18 18 18 18 18 18 18 18 17 17 17 17 17 17 17 17 17
32 32 32 31 31 32 31 31 32 31 30 30 30 29 28 27 26 25 24 23 22 21 21 21 21 20 20 19 19 19 18 18 18 18 18 18 18 18 18 17 17 17 17 17 17 17 17 17 17
31 31 31 31 32 30 31 31 31 32 31 32 31 29 28 27 26 25 24 23 22 22 21 21 21 20 20 20 19 19 18 18 18 18 18 18 18 17 17 17 17 17 17 17 17 17 17 17 17
31 31 30 30 30 30 31 31 32 32 32 32 31 30 28 27 26 25 24 23 22 22 21 21 21 21 20 20 19 19 19 19 18 18 18 18 18 17 17 17 17 17 17 17 17 17 17 17 17
32 32 30 30 30 31 30 31 32 32 31 31 30 30 28 27 26 25 24 24 23 22 22 21 21 21 20 20 20 19 19 18 18 18 18 18 17 17 17 17 17 17 17 17 17 17 17 17 17
31 32 33 32 31 31 31 31 32 32 32 31 30 30 29 28 27 26 25 24 23 22 22 21 21 21 21 20 20 20 19 19 18 18 18 17 18 17 17 17 17 17 17 17 17 17 17 17 16
32 32 32 31 30 30 31 31 32 31 31 31 31 30 29 28 27 26 25 24 23 23 22 21 21 21 21 20 20 20 19 19 19 18 18 18 18 18 17 17 17 17 17 17 17 16 17 17 16
30 31 31 31 31 30 30 31 32 31 31 31 31 30 29 28 27 26 25 24 23 23 22 22 21 21 21 20 20 20 19 19 19 19 18 18 18 17 17 17 17 16 16 16 17 16 16 16 16
31 31 31 30 30 30 31 31 32 31 31 31 30 29 28 27 27 25 25 24 23 23 22 22 21 21 21 21 20 20 20 19 19 18 18 18 18 17 17 17 17 16 16 16 16 16 16 16 16
Wind_Speed
14 12 7 4 2 9 14 11 9 9 8 9 9 8 10 10 9 9 7 7 7 7 9 10 10 10 10 11 12 13 14 14 15 15 15 16 16 16 16 17 17 18 18 18 19 19 18 18 18
10 8 5 1 6 11 13 11 11 11 9 8 9 10 11 10 10 9 8 8 7 8 9 10 10 10 10 10 11 13 14 14 14 15 15 16 16 16 17 17 18 18 18 18 18 17 17 17 17
8 6 2 5 12 13 12 11 11 10 7 6 7 8 8 8 8 7 9 8 8 8 9 11 9 9 10 10 11 12 13 14 14 15 15 16 16 16 17 17 17 17 17 17 16 16 16 16 16
5 3 2 10 15 14 12 10 9 9 9 7 8 9 9 8 6 9 10 8 8 8 9 12 8 9 10 11 11 12 12 13 14 14 15 15 16 16 16 17 16 16 16 16 16 16 15 15 15
4 1 8 13 15 12 11 9 6 7 7 8 9 12 11 9 10 11 9 8 8 9 9 11 9 9 9 10 11 11 12 13 14 14 15 15 15 15 16 16 15 15 15 14 15 14 14 14 13
2 2 9 13 13 10 9 7 8 10 11 10 11 12 9 8 10 10 9 8 8 8 9 11 10 8 9 10 10 11 11 12 12 13 13 14 14 14 14 14 14 13 14 13 13 13 13 12 12
2 7 12 13 11 10 8 6 8 9 10 9 8 11 9 10 10 9 9 7 7 7 7 7 9 9 9 9 9 9 10 11 11 11 12 12 12 12 12 12 12 12 12 12 12 12 12 11 11
1 5 11 11 11 11 8 7 8 8 9 8 4 7 10 11 10 10 9 7 7 6 6 6 7 7 7 10 9 8 9 9 9 10 10 10 11 11 10 11 11 11 11 10 10 10 10 10 9
1 6 11 10 10 10 9 10 8 7 9 7 6 9 13 14 12 10 9 7 6 5 5 5 6 6 5 7 8 8 8 7 7 8 7 5 7 9 9 11 10 9 9 8 8 8 8 8 9
2 9 12 9 9 11 10 9 8 8 9 10 11 13 14 13 11 10 8 8 7 6 5 5 5 5 4 5 5 4 6 6 4 6 6 6 6 5 7 10 8 8 7 7 7 7 7 6 7
6 10 10 9 9 10 10 9 7 8 8 9 12 15 14 12 10 9 7 7 7 6 5 5 5 4 3 3 3 3 4 4 5 5 4 4 4 5 5 6 7 6 6 5 6 6 3 3 4
8 9 8 9 9 9 9 9 7 6 8 10 12 14 13 12 10 8 8 7 6 5 5 4 4 3 2 1 2 2 3 3 3 4 2 3 3 2 3 2 3 3 3 3 2 2 3 2 3
8 9 9 9 9 9 9 8 7 7 8 11 13 13 12 10 9 8 7 6 6 5 5 4 3 3 3 1 1 2 1 2 3 2 3 1 2 2 3 2 1 1 2 3 2 2 2 2 3
8 10 10 10 9 8 8 8 6 8 10 12 13 12 11 9 9 8 7 7 6 6 5 5 5 4 4 3 2 1 1 2 1 1 2 1 1 2 2 3 2 1 1 1 1 1 2 2 2
10 11 9 8 7 6 7 7 6 10 11 12 12 11 10 9 8 8 7 7 7 6 6 5 5 5 4 3 3 2 2 2 2 1 1 2 2 2 2 2 2 1 2 2 2 2 2 2 2
8 7 6 7 6 6 6 6 9 11 12 12 11 10 10 9 8 8 7 7 6 6 6 6 5 5 5 4 3 2 2 1 1 2 2 2 2 2 2 2 1 1 2 2 2 3 2 2 2
7 5 4 7 7 6 6 3 10 11 12 11 11 11 10 10 9 8 8 7 7 6 6 6 6 5 5 4 4 3 2 2 2 2 2 3 3 3 3 2 1 3 2 2 3 2 2 2 2
5 4 4 5 7 8 7 3 9 12 12 11 11 11 11 11 10 10 9 8 7 6 6 6 6 6 5 4 4 3 2 2 2 2 2 3 3 4 4 3 2 3 2 2 2 2 2 2 2
4 4 4 3 5 7 7 6 7 12 12 12 11 12 12 11 10 10 9 9 8 7 7 7 6 6 5 4 4 4 3 2 2 2 2 3 3 3 3 3 2 3 3 3 3 3 3 2 1
6 6 5 5 4 6 5 7 6 11 14 13 12 12 12 11 11 11 10 10 9 8 8 8 7 7 6 4 3 3 2 2 2 1 1 2 3 3 3 3 3 2 2 3 3 3 3 2 3
8 7 5 4 5 6 6 6 7 9 11 12 13 12 12 12 12 12 12 11 10 10 9 8 7 7 7 5 4 4 3 3 2 2 2 2 2 3 2 2 3 3 3 2 3 3 4 4 3
9 6 5 6 6 4 5 3 6 8 10 13 14 14 13 13 13 12 12 12 11 10 9 9 8 7 6 6 5 5 4 3 2 2 1 1 1 2 2 2 2 3 3 2 4 3 4 4 4
6 5 6 7 7 5 6 6 3 7 8 11 13 14 14 14 13 13 12 12 11 10 9 9 8 7 7 6 6 5 5 3 2 2 2 2 1 1 1 2 2 2 3 2 3 3 4 4 4
7 7 6 7 8 8 5 7 3 4 6 7 10 12 13 14 13 13 12 11 11 10 9 9 9 8 7 7 6 6 5 4 3 2 2 2 1 1 1 1 1 2 2 2 2 2 3 3 3
11 9 7 8 8 6 4 6 4 1 3 5 6 9 11 13 13 13 13 13 12 12 11 10 9 8 8 8 7 6 5 4 4 3 2 1 1 0 0 1 1 1 1 1 1 1 2 2 2
14 14 10 8 7 6 6 6 3 1 3 4 5 7 10 12 13 13 14 13 12 12 12 11 10 9 9 8 7 5 5 4 3 3 2 1 0 1 1 1 1 1 1 1 1 1 1 1 2
14 14 11 10 10 9 6 5 5 4 5 5 6 8 9 11 12 13 14 14 13 13 12 11 10 9 9 8 7 6 5 4 3 3 2 1 1 1 1 1 1 1 1 2 1 1 1 1 1
10 11 9 12 11 11 9 9 6 5 5 5 7 8 9 10 11 12 12 13 13 12 12 11 10 10 9 9 8 7 6 5 5 3 2 1 1 1 1 1 1 1 1 1 1 1 1 1 1
11 12 11 11 11 11 10 6 2 3 3 4 6 8 9 11 11 11 11 11 12 12 12 11 11 10 9 9 8 7 6 6 5 4 3 2 2 1 1 1 1 2 2 2 2 2 2 2 2
13 14 14 12 11 11 11 6 4 2 3 4 4 6 8 9 10 11 11 11 12 12 12 12 11 11 10 9 9 8 7 6 5 5 4 3 2 2 2 1 1 2 2 2 2 2 2 2 2
Wind_Direction
167 172 196 227 130 76 69 70 77 86 75 70 68 67 66 51 50 85 97 98 96 93 92 89 71 68 66 68 72 82 81 80 80 82 82 82 84 87 95 96 96 96 98 99 100 102 103 105 107
164 177 218 241 69 79 71 70 75 78 95 97 81 79 77 68 67 94 108 104 104 94 90 80 77 73 70 72 77 82 82 81 80 81 81 80 82 85 91 93 93 93 95 97 99 102 104 106 107
169 213 287 63 61 68 79 79 87 94 96 94 89 71 68 78 84 96 107 117 109 94 92 88 80 78 74 73 76 81 82 83 82 82 83 82 83 87 89 91 91 92 95 98 100 101 104 105 106
200 208 91 73 73 69 83 93 101 101 91 88 100 89 80 71 83 104 117 118 110 106 97 93 82 80 77 77 76 79 82 83 84 83 83 84 85 89 92 91 91 92 94 98 100 101 102 104 106
238 111 86 80 78 80 85 88 87 89 89 96 98 100 91 82 101 114 124 122 112 103 100 99 88 84 83 82 80 81 82 83 83 83 83 84 86 90 92 92 93 93 95 99 101 102 101 102 106
207 74 77 82 85 89 90 91 94 95 101 103 106 103 92 111 119 121 121 117 109 106 104 107 107 90 86 84 82 83 83 85 86 86 86 86 87 90 94 96 95 93 94 95 100 100 100 100 104
40 66 78 87 95 94 89 93 95 102 105 101 107 103 113 126 123 126 122 118 112 106 104 108 115 115 110 92 83 85 84 84 86 89 90 91 91 92 94 98 97 96 94 94 99 102 101 103 106
8 91 87 85 90 92 106 101 100 103 99 108 107 109 126 135 138 133 129 127 119 113 110 112 107 107 116 112 100 92 90 89 90 92 96 104 111 109 110 110 98 98 98 99 102 105 107 109 111
228 83 80 80 86 104 121 117 108 105 113 104 90 100 122 136 142 141 138 132 124 119 117 114 112 107 106 106 115 122 117 108 122 113 115 135 117 112 118 92 100 104 106 107 108 114 120 129 130
63 78 79 77 87 112 126 120 122 127 119 115 112 113 129 143 150 150 144 140 135 134 131 119 109 105 104 102 113 115 117 111 101 93 105 103 92 93 100 113 114 112 117 125 125 135 159 180 141
72 82 94 96 98 114 124 122 126 127 119 128 136 140 147 151 156 154 145 139 135 145 139 132 124 123 107 103 110 101 102 112 115 99 103 101 113 118 120 127 135 135 147 135 138 170 153 127 114
95 91 100 107 115 120 119 121 122 106 98 124 138 145 152 159 159 157 151 148 146 150 146 137 131 129 107 79 106 132 127 124 112 115 121 124 121 110 107 123 124 141 133 119 135 130 121 123 139
112 110 109 117 123 119 121 117 115 110 115 131 140 150 157 161 158 159 155 157 159 166 167 155 156 152 160 161 257 120 108 115 113 117 123 145 148 133 120 105 122 136 125 150 170 148 136 163 168
118 121 123 127 126 135 132 127 132 128 139 144 153 160 165 167 164 163 170 175 178 182 177 168 181 178 186 189 202 211 178 151 130 127 119 159 152 141 151 159 162 143 148 132 191 168 180 204 194
136 132 135 139 145 149 155 143 141 145 155 158 164 169 173 178 177 182 182 186 186 187 184 184 187 188 200 208 214 209 214 186 169 150 156 200 202 172 207 186 187 178 173 181 212 209 211 210 202
165 169 152 151 167 167 212 126 143 159 169 170 172 176 183 188 192 191 191 194 193 191 187 195 197 188 198 211 222 228 235 225 216 208 193 199 220 210 233 229 212 217 228 217 207 224 214 224 235
190 185 151 154 183 185 222 131 151 171 181 181 183 185 191 191 197 195 195 195 195 195 195 198 206 206 205 204 212 221 224 244 245 237 225 205 216 222 235 238 245 244 239 244 252 202 236 230 252
182 180 170 173 178 202 219 187 163 181 193 193 191 194 196 199 200 197 198 196 193 193 198 204 205 211 215 211 209 218 222 221 231 241 233 234 224 226 246 225 222 248 242 239 237 243 243 252 255
201 206 187 165 170 208 223 224 187 188 200 202 199 200 203 204 197 195 197 198 193 192 195 204 210 202 209 215 215 211 210 215 215 223 221 229 239 232 242 262 215 245 247 252 244 240 225 232 234
214 214 192 161 172 220 234 236 210 197 206 209 207 205 206 202 196 193 197 198 198 196 196 204 207 206 209 210 219 225 227 225 215 237 209 232 235 238 226 240 250 247 256 246 247 250 254 240 223
215 221 204 179 176 211 249 221 199 200 209 213 217 214 209 205 201 196 197 199 199 198 198 202 205 205 210 210 207 208 202 217 213 206 201 228 239 244 255 250 265 273 264 258 258 255 251 254 238
212 211 208 191 210 212 240 250 179 192 202 211 214 213 211 206 203 199 196 198 200 199 196 199 199 201 201 203 214 219 229 231 224 224 194 208 228 249 249 254 261 272 275 269 265 254 261 256 258
208 179 199 208 231 246 222 264 175 177 205 209 210 210 209 205 201 199 198 196 198 196 193 192 192 197 199 202 208 217 231 230 211 203 195 239 217 251 274 273 276 269 274 283 286 281 266 256 260
164 167 184 216 236 240 236 258 241 184 207 204 201 203 204 202 198 197 195 191 193 192 192 190 188 194 196 201 207 215 224 229 227 221 221 223 206 202 277 282 302 288 294 286 279 277 263 272 266
198 208 216 223 228 234 201 249 254 192 213 216 198 193 194 194 194 193 191 190 191 191 191 189 187 192 195 197 201 206 213 217 220 230 215 240 240 179 66 352 338 326 314 301 300 292 300 279 264
211 223 232 239 241 228 193 243 237 179 214 217 201 190 186 188 191 191 189 189 190 191 190 189 188 189 189 190 193 197 204 213 207 207 229 219 250 49 36 9 6 356 338 327 313 297 322 312 278
208 223 240 246 252 255 235 237 231 204 208 199 189 181 182 184 185 186 186 187 187 189 189 189 185 184 183 182 182 187 193 200 186 175 196 188 180 154 99 66 46 24 17 3 342 22 357 346 316
232 220 226 239 241 245 238 237 234 202 200 194 188 185 181 179 180 180 182 185 184 184 184 186 183 181 180 179 184 181 182 182 180 183 168 161 169 117 128 94 66 51 45 32 7 38 32 29 31
200 212 224 235 244 250 249 235 177 201 213 213 198 187 184 182 179 176 177 178 178 179 179 180 180 179 180 182 181 177 176 176 176 173 174 177 170 150 135 93 72 58 44 39 41 38 39 53 56
221 219 214 226 230 243 259 247 127 181 213 208 197 182 183 182 177 175 173 172 175 177 178 179 180 179 180 178 177 177 176 176 178 173 170 165 154 144 127 110 92 82 68 56 56 50 48 53 56
Height
1498 1498 1499 1501 1494 1498 1508 1508 1506 1510 1514 1518 1519 1518 1520 1522 1524 1535 1539 1537 1538 1539 1538 1536 1535 1534 1533 1532 1532 1531 1531 1530 1530 1529 1529 1528 1528 1528 1528 1529 1530 1531 1532 1533 1534 1535 1537 1538 1540
1500 1500 1502 1497 1493 1508 1516 1510 1512 1515 1519 1521 1522 1522 1524 1528 1532 1536 1538 1539 1540 1540 1540 1539 1537 1537 1535 1534 1534 1534 1534 1534 1533 1533 1532 1532 1532 1532 1532 1533 1533 1534 1535 1536 1538 1539 1540 1542 1543
1501 1501 1501 1494 1500 1510 1516 1513 1516 1519 1521 1522 1524 1525 1528 1533 1536 1538 1540 1541 1542 1542 1542 1540 1539 1539 1538 1537 1537 1537 1537 1537 1536 1536 1536 1536 1536 1536 1536 1536 1537 1538 1539 1540 1541 1542 1544 1545 1546
1503 1503 1499 1498 1509 1511 1512 1515 1518 1519 1522 1524 1524 1528 1533 1537 1539 1540 1541 1542 1543 1544 1544 1542 1541 1541 1541 1540 1540 1540 1540 1540 1539 1540 1539 1539 1539 1539 1539 1540 1541 1542 1543 1544 1545 1546 1547 1548 1550
1504 1499 1497 1505 1511 1513 1514 1518 1519 1519 1523 1525 1526 1530 1536 1540 1541 1542 1543 1544 1545 1546 1546 1545 1543 1544 1543 1543 1543 1543 1542 1543 1542 1542 1543 1543 1543 1542 1543 1544 1545 1546 1546 1547 1548 1549 1550 1551 1553
1502 1495 1501 1512 1516 1515 1517 1520 1520 1522 1526 1528 1529 1532 1539 1542 1543 1544 1545 1546 1547 1548 1548 1547 1545 1546 1546 1546 1546 1546 1545 1545 1546 1546 1546 1546 1546 1546 1547 1548 1548 1549 1550 1551 1551 1552 1553 1554 1555
1501 1496 1504 1509 1515 1516 1520 1522 1522 1524 1527 1530 1531 1533 1540 1544 1545 1546 1546 1547 1548 1549 1550 1550 1550 1548 1548 1548 1548 1548 1548 1548 1548 1549 1549 1549 1549 1550 1550 1551 1552 1552 1553 1554 1555 1555 1556 1557 1557
1503 1498 1504 1507 1513 1518 1521 1523 1525 1526 1530 1533 1533 1534 1540 1545 1546 1547 1548 1549 1550 1551 1551 1551 1552 1552 1552 1552 1550 1550 1551 1551 1551 1551 1551 1552 1552 1553 1553 1554 1554 1555 1556 1556 1557 1558 1559 1559 1560
1503 1499 1507 1508 1511 1517 1522 1524 1528 1529 1532 1534 1535 1537 1541 1544 1547 1548 1550 1551 1552 1552 1553 1553 1554 1554 1554 1555 1553 1553 1553 1553 1554 1554 1554 1555 1557 1557 1557 1557 1557 1558 1558 1559 1560 1560 1561 1561 1562
1501 1503 1509 1509 1511 1516 1522 1524 1527 1529 1531 1535 1538 1541 1543 1546 1548 1549 1551 1552 1553 1553 1554 1554 1555 1555 1556 1556 1556 1556 1557 1556 1556 1557 1557 1558 1558 1559 1559 1558 1559 1560 1560 1561 1562 1562 1563 1564 1565
1502 1506 1510 1513 1515 1518 1522 1525 1527 1527 1530 1534 1538 1541 1544 1547 1549 1550 1552 1553 1554 1554 1555 1556 1556 1556 1557 1557 1558 1558 1558 1558 1558 1558 1558 1559 1560 1561 1561 1562 1562 1562 1563 1564 1564 1564 1566 1566 1566
1507 1510 1513 1515 1519 1520 1522 1525 1527 1528 1532 1536 1539 1542 1545 1547 1549 1551 1552 1554 1555 1555 1556 1557 1557 1557 1557 1558 1559 1559 1559 1560 1560 1559 1559 1560 1561 1561 1562 1562 1563 1564 1564 1564 1565 1566 1566 1566 1567
1509 1512 1515 1518 1520 1522 1524 1526 1529 1532 1535 1537 1540 1543 1546 1547 1550 1551 1553 1554 1555 1556 1556 1557 1557 1557 1557 1557 1558 1559 1560 1561 1560 1560 1560 1560 1562 1562 1563 1562 1563 1564 1565 1565 1565 1566 1566 1566 1567
1511 1514 1517 1519 1522 1524 1525 1528 1530 1533 1536 1539 1541 1544 1546 1548 1550 1552 1553 1554 1555 1556 1557 1557 1557 1557 1557 1558 1558 1559 1560 1560 1561 1561 1561 1561 1562 1562 1563 1563 1563 1564 1565 1565 1565 1566 1566 1566 1567
1513 1514 1517 1519 1521 1523 1525 1527 1528 1533 1536 1539 1542 1544 1546 1548 1550 1552 1553 1554 1555 1556 1556 1557 1557 1557 1558 1558 1559 1560 1560 1561 1561 1561 1561 1561 1561 1562 1563 1563 1564 1564 1564 1564 1565 1565 1565 1565 1566
1510 1511 1516 1518 1520 1523 1523 1526 1528 1533 1535 1538 1541 1543 1546 1548 1550 1551 1552 1554 1555 1555 1556 1556 1558 1558 1558 1558 1558 1559 1560 1560 1561 1561 1561 1560 1561 1561 1562 1563 1563 1563 1564 1564 1564 1564 1565 1565 1565
1509 1512 1514 1517 1518 1520 1520 1521 1526 1531 1534 1536 1539 1541 1544 1546 1548 1550 1551 1553 1554 1554 1555 1556 1556 1557 1557 1558 1558 1558 1559 1559 1560 1560 1560 1560 1560 1561 1561 1562 1562 1562 1563 1563 1563 1563 1563 1563 1563
1511 1509 1513 1515 1515 1518 1519 1518 1523 1529 1531 1533 1536 1539 1542 1544 1546 1548 1550 1551 1552 1553 1553 1554 1555 1555 1556 1557 1557 1558 1558 1559 1559 1559 1559 1559 1560 1560 1560 1560 1560 1561 1561 1561 1561 1561 1561 1561 1561
1504 1508 1512 1512 1512 1516 1517 1517 1519 1525 1528 1530 1533 1536 1539 1541 1544 1546 1548 1549 1550 1551 1552 1553 1554 1554 1555 1556 1557 1557 1558 1558 1558 1558 1558 1558 1558 1559 1558 1559 1559 1559 1559 1559 1560 1560 1559 1559 1559
1504 1509 1510 1512 1513 1515 1515 1515 1515 1520 1524 1527 1530 1532 1535 1538 1541 1544 1545 1547 1548 1549 1550 1551 1552 1553 1554 1554 1555 1556 1556 1557 1557 1557 1557 1557 1557 1557 1558 1557 1558 1558 1558 1557 1557 1557 1558 1558 1557
1505 1507 1509 1512 1513 1513 1515 1514 1514 1516 1521 1524 1527 1529 1532 1535 1538 1540 1542 1544 1546 1547 1549 1550 1551 1552 1552 1553 1554 1555 1555 1556 1556 1556 1556 1556 1556 1556 1556 1556 1556 1556 1556 1556 1555 1555 1555 1556 1555
1508 1503 1506 1511 1514 1513 1514 1519 1511 1511 1516 1519 1522 1524 1527 1531 1534 1537 1539 1541 1543 1545 1547 1548 1549 1550 1551 1551 1553 1554 1554 1555 1555 1555 1555 1555 1554 1554 1554 1554 1554 1554 1554 1554 1554 1554 1553 1553 1553
1502 1503 1505 1508 1511 1513 1512 1516 1509 1507 1511 1512 1515 1519 1523 1527 1530 1533 1536 1538 1541 1543 1545 1546 1547 1548 1549 1550 1551 1552 1553 1554 1554 1554 1553 1553 1553 1553 1553 1553 1552 1552 1552 1552 1551 1551 1551 1551 1550
1503 1506 1508 1507 1508 1523 1515 1518 1514 1503 1505 1505 1509 1514 1519 1523 1527 1530 1533 1536 1539 1541 1542 1544 1545 1546 1547 1548 1549 1550 1551 1552 1552 1552 1553 1553 1553 1552 1551 1551 1551 1550 1550 1550 1549 1549 1549 1548 1548
1503 1509 1521 1525 1525 1521 1510 1515 1509 1499 1500 1503 1506 1511 1516 1519 1523 1527 1530 1533 1536 1538 1540 1541 1543 1544 1545 1546 1547 1548 1549 1550 1551 1551 1551 1552 1552 1551 1550 1550 1549 1549 1548 1548 1547 1547 1546 1546 1545
1499 1502 1518 1530 1527 1515 1513 1513 1500 1497 1501 1503 1506 1509 1513 1516 1520 1523 1527 1530 1533 1535 1537 1539 1540 1541 1543 1544 1546 1547 1548 1549 1550 1550 1550 1550 1551 1550 1549 1549 1548 1547 1547 1546 1545 1545 1544 1544 1543
1498 1498 1493 1505 1511 1516 1509 1504 1497 1497 1499 1501 1504 1507 1510 1514 1517 1520 1524 1527 1530 1533 1535 1537 1538 1540 1541 1543 1544 1546 1547 1548 1548 1548 1549 1549 1549 1549 1548 1548 1547 1546 1545 1544 1544 1543 1542 1542 1542
1491 1491 1499 1505 1522 1525 1514 1508 1502 1497 1497 1498 1501 1505 1508 1512 1515 1518 1521 1524 1527 1530 1532 1534 1536 1538 1540 1542 1543 1545 1545 1546 1547 1548 1548 1548 1548 1548 1547 1547 1546 1545 1544 1543 1543 1542 1541 1540 1540
1496 1497 1497 1499 1502 1517 1520 1508 1489 1494 1495 1497 1499 1503 1506 1509 1512 1515 1518 1521 1524 1527 1530 1532 1534 1536 1538 1540 1542 1543 1544 1545 1546 1546 1547 1547 1547 1546 1546 1546 1545 1544 1544 1543 1542 1541 1540 1539 1539
1487 1489 1495 1507 1510 1506 1507 1503 1487 1491 1494 1496 1498 1501 1504 1507 1510 1513 1516 1519 1522 1524 1527 1529 1532 1534 1536 1538 1540 1542 1543 1544 1545 1546 1546 1546 1546 1546 1545 1545 1544 1544 1543 1542 1541 1540 1539 1539 1538